﻿測定場所 (Monitoring sites),日付 (Measurement date),時間 (Measurement time),線量率 最大値 (max) μGy/h,線量率 最小値 (min) μGy/h,線量率 平均値 (average) μGy/h,
大田 (Ota),2014-10-19,23:01～24:00,0.0460,0.0381,0.0417,
大田 (Ota),2014-10-19,22:01～23:00,0.0453,0.0385,0.0419,
大田 (Ota),2014-10-19,21:01～22:00,0.0464,0.0396,0.0420,
大田 (Ota),2014-10-19,20:01～21:00,0.0458,0.0387,0.0418,
大田 (Ota),2014-10-19,19:01～20:00,0.0454,0.0398,0.0423,
大田 (Ota),2014-10-19,18:01～19:00,0.0457,0.0381,0.0420,
大田 (Ota),2014-10-19,17:01～18:00,0.0453,0.0391,0.0424,
大田 (Ota),2014-10-19,16:01～17:00,0.0447,0.0398,0.0421,
大田 (Ota),2014-10-19,15:01～16:00,0.0466,0.0389,0.0425,
大田 (Ota),2014-10-19,14:01～15:00,0.0463,0.0400,0.0425,
大田 (Ota),2014-10-19,13:01～14:00,0.0477,0.0388,0.0425,
大田 (Ota),2014-10-19,12:01～13:00,0.0461,0.0393,0.0427,
大田 (Ota),2014-10-19,11:01～12:00,0.0469,0.0404,0.0430,
大田 (Ota),2014-10-19,10:01～11:00,0.0469,0.0398,0.0434,
大田 (Ota),2014-10-19,09:01～10:00,0.0463,0.0405,0.0432,
大田 (Ota),2014-10-19,08:01～09:00,0.0459,0.0397,0.0431,
大田 (Ota),2014-10-19,07:01～08:00,0.0462,0.0395,0.0429,
大田 (Ota),2014-10-19,06:01～07:00,0.0464,0.0405,0.0430,
大田 (Ota),2014-10-19,05:01～06:00,0.0458,0.0399,0.0428,
大田 (Ota),2014-10-19,04:01～05:00,0.0453,0.0389,0.0427,
大田 (Ota),2014-10-19,03:01～04:00,0.0470,0.0390,0.0425,
大田 (Ota),2014-10-19,02:01～03:00,0.0462,0.0388,0.0422,
大田 (Ota),2014-10-19,01:01～02:00,0.0455,0.0392,0.0425,
大田 (Ota),2014-10-19,00:01～01:00,0.0462,0.0395,0.0425,
大田 (Ota),2014-10-18,23:01～24:00,0.0454,0.0396,0.0421,
大田 (Ota),2014-10-18,22:01～23:00,0.0455,0.0391,0.0421,
大田 (Ota),2014-10-18,21:01～22:00,0.0448,0.0391,0.0422,
大田 (Ota),2014-10-18,20:01～21:00,0.0441,0.0388,0.0416,
大田 (Ota),2014-10-18,19:01～20:00,0.0462,0.0394,0.0421,
大田 (Ota),2014-10-18,18:01～19:00,0.0457,0.0388,0.0418,
大田 (Ota),2014-10-18,17:01～18:00,0.0450,0.0373,0.0415,
大田 (Ota),2014-10-18,16:01～17:00,0.0456,0.0394,0.0421,
大田 (Ota),2014-10-18,15:01～16:00,0.0449,0.0385,0.0421,
大田 (Ota),2014-10-18,14:01～15:00,0.0464,0.0385,0.0419,
大田 (Ota),2014-10-18,13:01～14:00,0.0454,0.0402,0.0422,
大田 (Ota),2014-10-18,12:01～13:00,0.0459,0.0390,0.0422,
大田 (Ota),2014-10-18,11:01～12:00,0.0450,0.0390,0.0420,
大田 (Ota),2014-10-18,10:01～11:00,0.0470,0.0379,0.0422,
大田 (Ota),2014-10-18,09:01～10:00,0.0445,0.0394,0.0424,
大田 (Ota),2014-10-18,08:01～09:00,0.0466,0.0393,0.0423,
大田 (Ota),2014-10-18,07:01～08:00,0.0450,0.0375,0.0421,
大田 (Ota),2014-10-18,06:01～07:00,0.0451,0.0386,0.0425,
大田 (Ota),2014-10-18,05:01～06:00,0.0450,0.0387,0.0422,
大田 (Ota),2014-10-18,04:01～05:00,0.0470,0.0388,0.0421,
大田 (Ota),2014-10-18,03:01～04:00,0.0442,0.0390,0.0416,
大田 (Ota),2014-10-18,02:01～03:00,0.0450,0.0381,0.0419,
大田 (Ota),2014-10-18,01:01～02:00,0.0451,0.0386,0.0421,
大田 (Ota),2014-10-18,00:01～01:00,0.0441,0.0390,0.0416,
大田 (Ota),2014-10-17,23:01～24:00,0.0447,0.0386,0.0415,
大田 (Ota),2014-10-17,22:01～23:00,0.0446,0.0389,0.0416,
大田 (Ota),2014-10-17,21:01～22:00,0.0470,0.0382,0.0415,
大田 (Ota),2014-10-17,20:01～21:00,0.0443,0.0386,0.0413,
大田 (Ota),2014-10-17,19:01～20:00,0.0459,0.0375,0.0417,
大田 (Ota),2014-10-17,18:01～19:00,0.0450,0.0384,0.0418,
大田 (Ota),2014-10-17,17:01～18:00,0.0473,0.0387,0.0418,
大田 (Ota),2014-10-17,16:01～17:00,0.0446,0.0384,0.0418,
大田 (Ota),2014-10-17,15:01～16:00,0.0453,0.0391,0.0423,
大田 (Ota),2014-10-17,14:01～15:00,0.0448,0.0388,0.0420,
大田 (Ota),2014-10-17,13:01～14:00,0.0445,0.0393,0.0422,
大田 (Ota),2014-10-17,12:01～13:00,0.0450,0.0387,0.0422,
大田 (Ota),2014-10-17,11:01～12:00,0.0453,0.0397,0.0423,
大田 (Ota),2014-10-17,10:01～11:00,0.0447,0.0397,0.0424,
大田 (Ota),2014-10-17,09:01～10:00,0.0454,0.0383,0.0417,
大田 (Ota),2014-10-17,08:01～09:00,0.0460,0.0380,0.0418,
大田 (Ota),2014-10-17,07:01～08:00,0.0452,0.0379,0.0418,
大田 (Ota),2014-10-17,06:01～07:00,0.0446,0.0385,0.0420,
大田 (Ota),2014-10-17,05:01～06:00,0.0443,0.0380,0.0417,
大田 (Ota),2014-10-17,04:01～05:00,0.0454,0.0373,0.0415,
大田 (Ota),2014-10-17,03:01～04:00,0.0453,0.0383,0.0415,
大田 (Ota),2014-10-17,02:01～03:00,0.0461,0.0381,0.0414,
大田 (Ota),2014-10-17,01:01～02:00,0.0454,0.0391,0.0418,
大田 (Ota),2014-10-17,00:01～01:00,0.0458,0.0388,0.0419,
大田 (Ota),2014-10-16,23:01～24:00,0.0452,0.0388,0.0420,
大田 (Ota),2014-10-16,22:01～23:00,0.0447,0.0379,0.0417,
大田 (Ota),2014-10-16,21:01～22:00,0.0447,0.0381,0.0417,
大田 (Ota),2014-10-16,20:01～21:00,0.0442,0.0371,0.0412,
大田 (Ota),2014-10-16,19:01～20:00,0.0443,0.0378,0.0410,
大田 (Ota),2014-10-16,18:01～19:00,0.0447,0.0391,0.0418,
大田 (Ota),2014-10-16,17:01～18:00,0.0438,0.0381,0.0412,
大田 (Ota),2014-10-16,16:01～17:00,0.0449,0.0379,0.0414,
大田 (Ota),2014-10-16,15:01～16:00,0.0443,0.0377,0.0414,
大田 (Ota),2014-10-16,14:01～15:00,0.0452,0.0370,0.0415,
大田 (Ota),2014-10-16,13:01～14:00,0.0457,0.0384,0.0416,
大田 (Ota),2014-10-16,12:01～13:00,0.0445,0.0386,0.0420,
大田 (Ota),2014-10-16,11:01～12:00,0.0475,0.0379,0.0418,
大田 (Ota),2014-10-16,10:01～11:00,0.0445,0.0388,0.0417,
大田 (Ota),2014-10-16,09:01～10:00,0.0448,0.0383,0.0418,
大田 (Ota),2014-10-16,08:01～09:00,0.0452,0.0379,0.0415,
大田 (Ota),2014-10-16,07:01～08:00,0.0460,0.0375,0.0418,
大田 (Ota),2014-10-16,06:01～07:00,0.0462,0.0390,0.0417,
大田 (Ota),2014-10-16,05:01～06:00,0.0464,0.0380,0.0417,
大田 (Ota),2014-10-16,04:01～05:00,0.0451,0.0398,0.0416,
大田 (Ota),2014-10-16,03:01～04:00,0.0455,0.0381,0.0413,
大田 (Ota),2014-10-16,02:01～03:00,0.0467,0.0387,0.0417,
大田 (Ota),2014-10-16,01:01～02:00,0.0446,0.0390,0.0414,
大田 (Ota),2014-10-16,00:01～01:00,0.0446,0.0398,0.0418,
大田 (Ota),2014-10-15,23:01～24:00,0.0463,0.0401,0.0430,
大田 (Ota),2014-10-15,22:01～23:00,0.0479,0.0414,0.0441,
大田 (Ota),2014-10-15,21:01～22:00,0.0477,0.0412,0.0438,
大田 (Ota),2014-10-15,20:01～21:00,0.0457,0.0393,0.0422,
大田 (Ota),2014-10-15,19:01～20:00,0.0448,0.0393,0.0417,
大田 (Ota),2014-10-15,18:01～19:00,0.0454,0.0390,0.0429,
大田 (Ota),2014-10-15,17:01～18:00,0.0486,0.0390,0.0433,
大田 (Ota),2014-10-15,16:01～17:00,0.0506,0.0423,0.0459,
大田 (Ota),2014-10-15,15:01～16:00,0.0527,0.0447,0.0488,
大田 (Ota),2014-10-15,14:01～15:00,0.0521,0.0458,0.0495,
大田 (Ota),2014-10-15,13:01～14:00,0.0563,0.0457,0.0496,
大田 (Ota),2014-10-15,12:01～13:00,0.0578,0.0495,0.0543,
大田 (Ota),2014-10-15,11:01～12:00,0.0554,0.0486,0.0517,
大田 (Ota),2014-10-15,10:01～11:00,0.0535,0.0477,0.0504,
大田 (Ota),2014-10-15,09:01～10:00,0.0490,0.0394,0.0442,
大田 (Ota),2014-10-15,08:01～09:00,0.0471,0.0399,0.0430,
大田 (Ota),2014-10-15,07:01～08:00,0.0458,0.0382,0.0420,
大田 (Ota),2014-10-15,06:01～07:00,0.0452,0.0395,0.0420,
大田 (Ota),2014-10-15,05:01～06:00,0.0449,0.0385,0.0418,
大田 (Ota),2014-10-15,04:01～05:00,0.0464,0.0376,0.0418,
大田 (Ota),2014-10-15,03:01～04:00,0.0442,0.0371,0.0414,
大田 (Ota),2014-10-15,02:01～03:00,0.0477,0.0395,0.0417,
大田 (Ota),2014-10-15,01:01～02:00,0.0448,0.0391,0.0418,
大田 (Ota),2014-10-15,00:01～01:00,0.0445,0.0392,0.0416,
大田 (Ota),2014-10-14,23:01～24:00,0.0450,0.0382,0.0413,
大田 (Ota),2014-10-14,22:01～23:00,0.0453,0.0383,0.0420,
大田 (Ota),2014-10-14,21:01～22:00,0.0441,0.0377,0.0415,
大田 (Ota),2014-10-14,20:01～21:00,0.0448,0.0384,0.0415,
大田 (Ota),2014-10-14,19:01～20:00,0.0443,0.0387,0.0418,
大田 (Ota),2014-10-14,18:01～19:00,0.0443,0.0374,0.0413,
大田 (Ota),2014-10-14,17:01～18:00,0.0444,0.0385,0.0416,
大田 (Ota),2014-10-14,16:01～17:00,0.0448,0.0395,0.0417,
大田 (Ota),2014-10-14,15:01～16:00,0.0448,0.0394,0.0417,
大田 (Ota),2014-10-14,14:01～15:00,0.0449,0.0389,0.0423,
大田 (Ota),2014-10-14,13:01～14:00,0.0456,0.0383,0.0419,
大田 (Ota),2014-10-14,12:01～13:00,0.0453,0.0394,0.0423,
大田 (Ota),2014-10-14,11:01～12:00,0.0459,0.0394,0.0418,
大田 (Ota),2014-10-14,10:01～11:00,0.0455,0.0385,0.0417,
大田 (Ota),2014-10-14,09:01～10:00,0.0441,0.0393,0.0420,
大田 (Ota),2014-10-14,08:01～09:00,0.0452,0.0396,0.0421,
大田 (Ota),2014-10-14,07:01～08:00,0.0470,0.0403,0.0428,
大田 (Ota),2014-10-14,06:01～07:00,0.0491,0.0422,0.0452,
大田 (Ota),2014-10-14,05:01～06:00,0.0503,0.0372,0.0432,
大田 (Ota),2014-10-14,04:01～05:00,0.0459,0.0400,0.0428,
大田 (Ota),2014-10-14,03:01～04:00,0.0481,0.0407,0.0443,
大田 (Ota),2014-10-14,02:01～03:00,0.0479,0.0411,0.0443,
大田 (Ota),2014-10-14,01:01～02:00,0.0511,0.0425,0.0466,
大田 (Ota),2014-10-14,00:01～01:00,0.0518,0.0423,0.0467,
大田 (Ota),2014-10-13,23:01～24:00,0.0491,0.0386,0.0430,
大田 (Ota),2014-10-13,22:01～23:00,0.0469,0.0389,0.0429,
大田 (Ota),2014-10-13,21:01～22:00,0.0481,0.0412,0.0453,
大田 (Ota),2014-10-13,20:01～21:00,0.0548,0.0447,0.0493,
大田 (Ota),2014-10-13,19:01～20:00,0.0528,0.0455,0.0498,
大田 (Ota),2014-10-13,18:01～19:00,0.0540,0.0470,0.0504,
大田 (Ota),2014-10-13,17:01～18:00,0.0541,0.0467,0.0508,
大田 (Ota),2014-10-13,16:01～17:00,0.0488,0.0396,0.0451,
大田 (Ota),2014-10-13,15:01～16:00,0.0500,0.0433,0.0465,
大田 (Ota),2014-10-13,14:01～15:00,0.0497,0.0406,0.0445,
大田 (Ota),2014-10-13,13:01～14:00,0.0468,0.0403,0.0435,
大田 (Ota),2014-10-13,12:01～13:00,0.0474,0.0401,0.0436,
大田 (Ota),2014-10-13,11:01～12:00,0.0471,0.0403,0.0434,
大田 (Ota),2014-10-13,10:01～11:00,0.0487,0.0397,0.0433,
大田 (Ota),2014-10-13,09:01～10:00,0.0456,0.0392,0.0425,
大田 (Ota),2014-10-13,08:01～09:00,0.0467,0.0396,0.0427,
大田 (Ota),2014-10-13,07:01～08:00,0.0460,0.0379,0.0425,
大田 (Ota),2014-10-13,06:01～07:00,0.0449,0.0401,0.0425,
大田 (Ota),2014-10-13,05:01～06:00,0.0451,0.0396,0.0424,
大田 (Ota),2014-10-13,04:01～05:00,0.0459,0.0396,0.0421,
大田 (Ota),2014-10-13,03:01～04:00,0.0456,0.0392,0.0422,
大田 (Ota),2014-10-13,02:01～03:00,0.0446,0.0378,0.0421,
大田 (Ota),2014-10-13,01:01～02:00,0.0448,0.0386,0.0420,
大田 (Ota),2014-10-13,00:01～01:00,0.0455,0.0394,0.0425,
